GW3373 Weather Reports


time (UTC)temp
C
wind
direction
speed
KPH
gust
KPH
rain 1hr
cm
rain 24hr
cm
rain mn
cm
humidity
%
barometer
mb
20260506231516 14 205 1.6 1.6 0.00 0.53 0.53 99 1005.4
20260506230515 14 205 0.0 1.6 0.00 0.53 0.53 99 1005.5
20260506225510 14 206 1.6 3.2 0.00 0.53 0.53 99 1005.4
20260506224509 14 205 1.6 3.2 0.43 0.53 0.53 99 1005.5
20260506223507 14 205 3.2 3.2 0.18 0.46 0.46 99 1005.5
20260506222506 14 205 3.2 3.2 0.13 0.43 0.43 99 1005.7
20260506221505 14 206 1.6 3.2 0.13 0.43 0.43 99 1005.7
20260506220503 14 206 1.6 1.6 0.30 0.41 0.41 99 1005.7
20260506215502 14 206 1.6 1.6 0.00 0.36 0.36 99 1005.7
20260506214500 14 207 0.0 1.6 0.18 0.36 0.36 99 1005.8
20260506213455 14 205 3.2 3.2 0.13 0.33 0.33 99 1005.9
20260506212453 14 217 1.6 1.6 0.00 0.30 0.30 99 1006.0
20260506211450 14 218 1.6 1.6 0.00 0.30 0.30 99 1005.9
20260506210450 14 218 3.2 3.2 0.00 0.30 0.30 99 1006.2
20260506205449 14 220 3.2 3.2 0.00 0.30 0.30 99 1006.2
20260506204449 14 203 4.8 4.8 0.00 0.30 0.30 99 1006.3
20260506203450 14 227 3.2 3.2 0.18 0.30 0.30 99 1006.3
20260506202450 14 206 1.6 4.8 0.00 0.28 0.28 99 1006.5
20260506201449 14 218 3.2 3.2 0.18 0.28 0.28 99 1006.6
20260506200448 15 240 1.6 1.6 0.13 0.25 0.25 99 1006.5
20260506195448 15 222 3.2 3.2 0.18 0.23 0.23 99 1006.6
20260506194447 15 228 3.2 3.2 0.00 0.20 0.20 99 1006.3
20260506193447 15 200 4.8 4.8 0.13 0.20 0.20 99 1006.4
20260506192447 15 184 4.8 4.8 0.18 0.18 0.18 98 1006.6
20260506191446 15 184 4.8 4.8 0.13 0.15 0.15 99 1006.7
20260506190445 15 217 3.2 3.2 0.13 0.15 0.15 98 1006.6
20260506185445 15 241 0.0 1.6 0.18 0.13 0.13 98 1006.7
20260506184445 15 224 1.6 1.6 0.13 0.10 0.10 98 1006.5
20260506183443 16 230 1.6 3.2 0.18 0.08 0.08 96 1006.8
20260506182438 16 213 3.2 3.2 0.13 0.05 0.05 95 1007.1
20260506181433 16 226 1.6 3.2 0.00 0.03 0.03 92 1007.4
20260506180431 17 251 0.0 0.0 0.00 0.00 0.00 89 1007.1
20260506175431 17 227 4.8 6.4 0.00 0.00 0.00 82 1007.3
20260506174426 18 217 3.2 4.8 0.00 0.00 0.00 76 1007.5
20260506173425 20 188 6.4 6.4 0.00 0.00 0.00 71 1007.1
20260506172425 20 228 4.8 4.8 0.00 0.00 0.00 67 1007.1
20260506171425 20 203 6.4 11.3 0.00 0.00 0.00 67 1007.1
20260506170425 21 218 8.0 11.3 0.00 0.00 0.00 66 1007.0
20260506165422 21 210 6.4 6.4 0.00 0.00 0.00 64 1007.2
20260506164420 21 204 8.0 11.3 0.00 0.00 0.00 63 1007.2
20260506163419 21 184 6.4 9.7 0.00 0.00 0.00 64 1007.2
20260506162418 20 202 3.2 4.8 0.00 0.00 0.00 68 1007.5
20260506161413 20 231 3.2 3.2 0.00 0.00 0.00 67 1007.6
20260506160414 20 224 4.8 6.4 0.00 0.00 0.00 67 1007.7
20260506155409 20 218 3.2 3.2 0.00 0.00 0.00 67 1008.1
20260506153530 20 187 3.2 4.8 0.00 0.00 0.00 68 1008.2
20260506152530 20 215 3.2 4.8 0.00 0.00 0.00 69 1008.2
20260506151526 20 232 1.6 3.2 0.00 0.00 0.00 68 1008.4
20260506150525 20 269 3.2 3.2 0.00 0.00 0.00 70 1008.5
20260506145525 20 184 4.8 4.8 0.00 0.00 0.00 68 1008.6
20260506144525 20 230 1.6 3.2 0.00 0.00 0.00 71 1008.5
20260506143520 20 224 1.6 3.2 0.00 0.00 0.00 71 1008.8
20260506142515 19 207 1.6 3.2 0.00 0.00 0.00 73 1008.9
20260506141511 19 190 4.8 6.4 0.00 0.00 0.00 74 1008.6
20260506140506 18 207 3.2 6.4 0.00 0.00 0.00 74 1008.5
20260506135506 18 228 3.2 3.2 0.00 0.00 0.00 76 1008.4
20260506134503 18 208 3.2 3.2 0.00 0.00 0.00 76 1008.7
20260506133503 18 221 3.2 3.2 0.00 0.00 0.00 77 1008.7
20260506132502 18 224 3.2 3.2 0.00 0.00 0.00 78 1008.5
20260506131457 18 213 1.6 3.2 0.00 0.00 0.00 79 1008.8
20260506130456 18 256 3.2 3.2 0.00 0.00 0.00 79 1009.2
20260506125452 17 211 1.6 3.2 0.00 0.00 0.00 81 1009.5
20260506124447 17 237 1.6 1.6 0.00 0.00 0.00 81 1009.2
20260506123442 17 236 1.6 3.2 0.00 0.00 0.00 81 1009.2
20260506122442 17 209 4.8 4.8 0.00 0.00 0.00 81 1009.0
20260506121437 16 202 4.8 4.8 0.00 0.00 0.00 82 1009.0
20260506120432 16 228 3.2 4.8 0.00 0.00 0.00 83 1009.3
20260506115427 16 203 3.2 4.8 0.00 0.00 0.00 84 1009.1
20260506114422 16 233 1.6 1.6 0.00 0.00 0.00 84 1008.9
20260506113418 15 216 4.8 4.8 0.00 0.00 0.00 86 1009.6
20260506112418 15 292 1.6 3.2 0.00 0.00 0.00 86 1009.2
20260506111413 15 220 3.2 4.8 0.00 0.00 0.00 87 1009.5
20260506110408 15 224 1.6 3.2 0.00 0.00 0.00 86 1009.4
20260506105406 15 216 1.6 3.2 0.00 0.00 0.00 87 1009.4
20260506104401 15 209 4.8 4.8 0.00 0.00 0.00 87 1009.4
20260506103356 14 210 1.6 3.2 0.00 0.00 0.00 88 1009.4
20260506102351 14 210 1.6 1.6 0.00 0.00 0.00 88 1009.4
20260506101350 13 210 1.6 1.6 0.00 0.00 0.00 89 1009.3
20260506100346 13 210 3.2 3.2 0.00 0.00 0.00 89 1009.2
20260506095341 13 211 3.2 3.2 0.00 0.00 0.00 88 1009.4
20260506094337 13 212 1.6 1.6 0.00 0.00 0.00 88 1009.2
20260506093337 14 209 3.2 4.8 0.00 0.00 0.00 88 1009.4
20260506092333 14 214 1.6 1.6 0.00 0.00 0.00 87 1009.1
20260506091327 14 221 1.6 1.6 0.00 0.00 0.00 86 1009.3
20260506090322 14 232 3.2 4.8 0.00 0.00 0.00 86 1009.3
20260506085320 14 229 3.2 3.2 0.00 0.00 0.00 86 1009.3
20260506084320 14 225 3.2 3.2 0.00 0.00 0.00 85 1009.3
20260506083314 14 235 0.0 0.0 0.00 0.00 0.00 85 1009.5
20260506082313 14 236 1.6 1.6 0.00 0.00 0.00 85 1009.5
20260506081308 15 238 1.6 1.6 0.00 0.00 0.00 85 1009.4
20260506080307 15 234 1.6 1.6 0.00 0.00 0.00 84 1009.4
20260506073257 15 236 1.6 3.2 0.00 0.00 0.00 81 1009.4
20260506072252 15 252 0.0 1.6 0.00 0.00 0.00 81 1009.4
20260506071247 15 238 1.6 3.2 0.00 0.00 0.00 80 1009.2
20260506070247 15 203 3.2 6.4 0.00 0.00 0.00 79 1009.2
20260506062229 16 239 1.6 1.6 0.00 0.00 0.00 76 1009.2
20260506061229 16 266 4.8 4.8 0.00 0.00 0.00 76 1009.2
20260506060224 16 247 1.6 1.6 0.00 0.00 0.00 76 1009.2
20260506051214 16 229 3.2 3.2 0.00 0.00 0.00 71 1009.4
20260506050209 17 251 1.6 1.6 0.00 0.00 0.00 71 1009.4
20260506044209 17 250 0.0 0.0 0.00 0.00 0.00 69 1009.5
20260506043204 17 264 1.6 1.6 0.00 0.00 0.00 70 1009.4
20260506042200 17 232 1.6 3.2 0.00 0.00 0.00 68 1009.5
20260506041155 17 236 3.2 4.8 0.00 0.00 0.00 69 1009.4
20260506040155 17 189 3.2 4.8 0.00 0.00 0.00 69 1009.6
20260506035155 17 309 1.6 3.2 0.00 0.00 0.00 69 1009.5
20260506034154 16 189 3.2 4.8 0.00 0.00 0.00 69 1009.7
20260506033154 16 233 3.2 3.2 0.00 0.00 0.00 69 1009.4
20260506032154 17 234 1.6 1.6 0.00 0.00 0.00 68 1009.4
20260506031154 17 216 3.2 4.8 0.00 0.00 0.00 68 1009.3
20260506030149 17 259 3.2 3.2 0.00 0.00 0.00 69 1009.4
20260506025148 17 237 3.2 3.2 0.00 0.00 0.00 68 1009.3
20260506024147 17 254 4.8 4.8 0.00 0.00 0.00 68 1009.0
20260506023147 17 316 3.2 3.2 0.00 0.00 0.00 67 1009.1
20260506022147 17 240 1.6 1.6 0.00 0.00 0.00 67 1009.2
20260506021142 17 205 3.2 3.2 0.00 0.00 0.00 67 1009.3
20260506020142 17 294 0.0 0.0 0.00 0.00 0.00 67 1009.3
20260506015137 17 208 3.2 3.2 0.00 0.00 0.00 66 1009.2
20260506014136 18 263 1.6 1.6 0.00 0.00 0.00 65 1009.1
20260506013131 18 251 1.6 1.6 0.00 0.00 0.00 65 1009.1
20260506012129 18 208 3.2 3.2 0.00 0.00 0.00 63 1008.6
20260506011129 18 241 1.6 1.6 0.00 0.00 0.00 63 1008.6
20260506010124 18 188 6.4 6.4 0.00 0.00 0.00 61 1008.5
20260506005124 19 193 4.8 4.8 0.00 0.00 0.00 60 1008.2
20260506004123 19 183 6.4 9.7 0.00 0.00 0.00 59 1008.5
20260506003122 19 201 4.8 4.8 0.00 0.00 0.00 59 1008.1
20260506002120 19 268 1.6 3.2 0.00 0.00 0.00 60 1008.0
20260506001119 20 246 1.6 1.6 0.00 0.00 0.00 59 1007.9
20260506000119 20 249 3.2 4.8 0.00 0.00 0.00 57 1007.9
20260505235120 20 244 3.2 4.8 0.00 0.00 0.00 56 1007.6
20260505234119 21 211 4.8 4.8 0.00 0.00 0.00 54 1007.3
20260505233114 21 188 4.8 4.8 0.00 0.00 0.00 53 1007.1